When you browse on this site, cookies collect data to enhance your experience and personalize the content and advertising you see.
Visit our Privacy Policy to learn more. By continuing to use the site, you agree to this use of cookies and data.
  • In Deutschland
  • Länderverzeichnis
  • Für 7 Tage
  • Wassertemperatur
  • Wetterkarte
  • Widgets
  • user-avatar
    Anmelden

    Stündliche Wetter Miedzypole

    Heute, 13 Dezember, Freitag

    Zeit Temperatur Niederschläge Wind Luftdruck Luftfeuchtigkeit
    00:00 -1°C° 0 mm 3 m/S 743 mmHg 92%
    01:00 -1°C° 0 mm 3 m/S 742 mmHg 96%
    02:00 -1°C° 0 mm 4 m/S 741 mmHg 95%
    03:00 -1°C° 0 mm 5 m/S 741 mmHg 94%
    04:00 -1°C° 0 mm 5 m/S 740 mmHg 93%
    05:00 -2°C° 0 mm 6 m/S 739 mmHg 93%
    06:00 -2°C° 0 mm 6 m/S 739 mmHg 92%
    07:00 -1°C° 0 mm 6 m/S 738 mmHg 91%
    08:00 -1°C° 0 mm 7 m/S 738 mmHg 88%
    09:00 -1°C° 0 mm 7 m/S 737 mmHg 85%
    10:00 0°C° 0 mm 7 m/S 736 mmHg 82%
    11:00 0°C° 0 mm 7 m/S 736 mmHg 81%
    12:00 +2°C° 0 mm 7 m/S 735 mmHg 79%
    13:00 +2°C° 0 mm 7 m/S 735 mmHg 78%
    14:00 +2°C° 0 mm 7 m/S 734 mmHg 78%
    15:00 +2°C° 0 mm 7 m/S 734 mmHg 79%
    16:00 +2°C° 0 mm 7 m/S 734 mmHg 80%
    17:00 +2°C° 0 mm 7 m/S 734 mmHg 81%
    18:00 +2°C° 0 mm 7 m/S 734 mmHg 82%
    19:00 +2°C° 0 mm 7 m/S 734 mmHg 83%
    20:00 +2°C° 0 mm 6 m/S 735 mmHg 84%
    21:00 +2°C° 0 mm 6 m/S 735 mmHg 84%
    22:00 +2°C° 0 mm 6 m/S 735 mmHg 85%
    23:00 +2°C° 0 mm 6 m/S 735 mmHg 86%

    Morgen, 14 Dezember, Samstag

    Zeit Temperatur Niederschläge Wind Luftdruck Luftfeuchtigkeit
    00:00 +2°C° 0 mm 5 m/S 735 mmHg 87%
    01:00 +1°C° 0 mm 4 m/S 736 mmHg 87%
    02:00 +1°C° 0 mm 5 m/S 736 mmHg 88%
    03:00 +1°C° 0 mm 5 m/S 736 mmHg 89%
    04:00 +1°C° 0 mm 5 m/S 736 mmHg 89%
    05:00 +1°C° 0 mm 5 m/S 736 mmHg 89%
    06:00 +1°C° 0 mm 5 m/S 736 mmHg 89%
    07:00 +1°C° 0 mm 4 m/S 737 mmHg 89%
    08:00 +1°C° 0 mm 5 m/S 737 mmHg 85%
    09:00 +2°C° 0 mm 5 m/S 737 mmHg 80%
    10:00 +2°C° 0 mm 6 m/S 737 mmHg 75%
    11:00 +3°C° 0.1 mm 6 m/S 737 mmHg 75%
    12:00 +3°C° 0.1 mm 6 m/S 737 mmHg 74%
    13:00 +3°C° 0.1 mm 6 m/S 738 mmHg 74%
    14:00 +3°C° 0 mm 5 m/S 738 mmHg 76%
    15:00 +2°C° 0 mm 5 m/S 738 mmHg 78%
    16:00 +3°C° 0 mm 4 m/S 738 mmHg 81%
    17:00 +2°C° 0 mm 5 m/S 738 mmHg 80%
    18:00 +2°C° 0 mm 6 m/S 738 mmHg 80%
    19:00 +2°C° 0 mm 6 m/S 738 mmHg 80%
    20:00 +2°C° 0.1 mm 7 m/S 739 mmHg 79%
    21:00 +3°C° 0.1 mm 7 m/S 739 mmHg 79%
    22:00 +3°C° 0.1 mm 7 m/S 740 mmHg 78%
    23:00 +3°C° 0 mm 7 m/S 740 mmHg 76%

    übermorgen, 15 Dezember, Sonntag

    Zeit Temperatur Niederschläge Wind Luftdruck Luftfeuchtigkeit
    00:00 +2°C° 0 mm 6 m/S 741 mmHg 73%
    01:00 +1°C° 0 mm 5 m/S 742 mmHg 70%
    02:00 +1°C° 0 mm 5 m/S 742 mmHg 75%
    03:00 +1°C° 0 mm 5 m/S 743 mmHg 80%
    04:00 +1°C° 0 mm 5 m/S 743 mmHg 85%
    05:00 +2°C° 0 mm 5 m/S 744 mmHg 84%
    06:00 +2°C° 0 mm 6 m/S 744 mmHg 82%
    07:00 +2°C° 0 mm 6 m/S 744 mmHg 81%
    08:00 +2°C° 0 mm 5 m/S 745 mmHg 80%
    09:00 +3°C° 0 mm 5 m/S 745 mmHg 79%
    10:00 +3°C° 0 mm 5 m/S 745 mmHg 77%
    11:00 +3°C° 0.3 mm 5 m/S 745 mmHg 79%
    12:00 +5°C° 0.3 mm 5 m/S 744 mmHg 81%
    13:00 +5°C° 0.3 mm 5 m/S 744 mmHg 84%
    14:00 +5°C° 0.7 mm 6 m/S 744 mmHg 82%
    15:00 +5°C° 0.7 mm 6 m/S 744 mmHg 80%
    16:00 +6°C° 0.7 mm 7 m/S 744 mmHg 78%
    17:00 +6°C° 0.1 mm 7 m/S 745 mmHg 78%
    18:00 +7°C° 0.1 mm 6 m/S 746 mmHg 77%
    19:00 +7°C° 0.1 mm 6 m/S 747 mmHg 77%
    20:00 +5°C° 0 mm 6 m/S 747 mmHg 78%
    21:00 +6°C° 0 mm 5 m/S 748 mmHg 79%
    22:00 +5°C° 0 mm 4 m/S 748 mmHg 80%
    23:00 +5°C° 0 mm 4 m/S 749 mmHg 82%

    16 Dezember, Montag

    Zeit Temperatur Niederschläge Wind Luftdruck Luftfeuchtigkeit
    00:00 +4°C° 0 mm 3 m/S 749 mmHg 84%
    01:00 +3°C° 0 mm 3 m/S 750 mmHg 85%
    02:00 +3°C° 0 mm 3 m/S 750 mmHg 87%
    03:00 +3°C° 0 mm 3 m/S 751 mmHg 89%
    04:00 +3°C° 0 mm 3 m/S 751 mmHg 91%
    05:00 +3°C° 0 mm 3 m/S 751 mmHg 91%
    06:00 +2°C° 0 mm 3 m/S 751 mmHg 91%
    07:00 +2°C° 0 mm 3 m/S 751 mmHg 91%
    08:00 +3°C° 0 mm 3 m/S 752 mmHg 90%
    09:00 +4°C° 0 mm 3 m/S 752 mmHg 88%
    10:00 +4°C° 0 mm 3 m/S 752 mmHg 87%
    11:00 +5°C° 0 mm 3 m/S 752 mmHg 84%
    12:00 +5°C° 0 mm 3 m/S 752 mmHg 80%
    13:00 +7°C° 0 mm 3 m/S 752 mmHg 77%
    14:00 +5°C° 0 mm 3 m/S 752 mmHg 78%
    15:00 +5°C° 0 mm 3 m/S 751 mmHg 79%
    16:00 +5°C° 0 mm 3 m/S 751 mmHg 80%
    17:00 +5°C° 0 mm 3 m/S 751 mmHg 81%
    18:00 +5°C° 0 mm 3 m/S 751 mmHg 81%
    19:00 +4°C° 0 mm 3 m/S 751 mmHg 82%
    20:00 +4°C° 0 mm 3 m/S 751 mmHg 84%
    21:00 +4°C° 0 mm 3 m/S 751 mmHg 85%
    22:00 +4°C° 0 mm 3 m/S 751 mmHg 87%
    23:00 +4°C° 0 mm 3 m/S 751 mmHg 87%

    17 Dezember, Dienstag

    Zeit Temperatur Niederschläge Wind Luftdruck Luftfeuchtigkeit
    00:00 +4°C° 0 mm 3 m/S 751 mmHg 88%
    01:00 +3°C° 0 mm 3 m/S 750 mmHg 88%
    02:00 +3°C° 0 mm 3 m/S 750 mmHg 88%
    03:00 +3°C° 0 mm 3 m/S 750 mmHg 89%
    04:00 +3°C° 0 mm 3 m/S 750 mmHg 90%
    05:00 +3°C° 0 mm 3 m/S 750 mmHg 89%
    06:00 +3°C° 0 mm 3 m/S 750 mmHg 89%
    07:00 +3°C° 0 mm 3 m/S 750 mmHg 89%
    08:00 +3°C° 0 mm 3 m/S 750 mmHg 86%
    09:00 +4°C° 0 mm 3 m/S 750 mmHg 84%
    10:00 +5°C° 0 mm 3 m/S 750 mmHg 82%
    11:00 +6°C° 0 mm 2 m/S 750 mmHg 80%
    12:00 +7°C° 0 mm 2 m/S 750 mmHg 79%
    13:00 +7°C° 0 mm 2 m/S 749 mmHg 77%
    14:00 +7°C° 0 mm 2 m/S 749 mmHg 80%
    15:00 +6°C° 0 mm 2 m/S 749 mmHg 82%
    16:00 +5°C° 0 mm 2 m/S 749 mmHg 85%
    17:00 +5°C° 0 mm 2 m/S 749 mmHg 85%
    18:00 +5°C° 0 mm 2 m/S 749 mmHg 86%
    19:00 +5°C° 0 mm 2 m/S 749 mmHg 86%
    20:00 +5°C° 0 mm 2 m/S 749 mmHg 86%
    21:00 +5°C° 0 mm 2 m/S 750 mmHg 87%
    22:00 +5°C° 0 mm 2 m/S 750 mmHg 87%
    23:00 +5°C° 0 mm 2 m/S 750 mmHg 86%

    18 Dezember, Mittwoch

    Zeit Temperatur Niederschläge Wind Luftdruck Luftfeuchtigkeit
    00:00 +5°C° 0 mm 2 m/S 749 mmHg 86%
    01:00 +5°C° 0 mm 2 m/S 749 mmHg 85%
    02:00 +6°C° 0 mm 2 m/S 749 mmHg 85%
    03:00 +6°C° 0 mm 2 m/S 749 mmHg 85%
    04:00 +6°C° 0 mm 2 m/S 749 mmHg 85%
    05:00 +6°C° 0 mm 2 m/S 749 mmHg 85%
    06:00 +6°C° 0 mm 2 m/S 749 mmHg 86%
    07:00 +6°C° 0 mm 2 m/S 749 mmHg 86%
    08:00 +6°C° 0 mm 2 m/S 749 mmHg 86%
    09:00 +5°C° 0 mm 3 m/S 750 mmHg 86%
    10:00 +7°C° 0 mm 3 m/S 750 mmHg 86%
    11:00 +7°C° 0 mm 3 m/S 749 mmHg 85%
    12:00 +8°C° 0 mm 3 m/S 749 mmHg 84%
    13:00 +8°C° 0 mm 3 m/S 749 mmHg 83%
    14:00 +8°C° 0 mm 3 m/S 749 mmHg 85%
    15:00 +7°C° 0 mm 3 m/S 749 mmHg 88%
    16:00 +7°C° 0 mm 3 m/S 749 mmHg 91%
    17:00 +5°C° 0 mm 3 m/S 749 mmHg 92%
    18:00 +5°C° 0 mm 3 m/S 749 mmHg 92%
    19:00 +5°C° 0 mm 3 m/S 749 mmHg 93%
    20:00 +5°C° 0 mm 3 m/S 749 mmHg 93%
    21:00 +4°C° 0 mm 3 m/S 749 mmHg 93%
    22:00 +5°C° 0 mm 2 m/S 750 mmHg 93%
    23:00 +5°C° 0 mm 2 m/S 750 mmHg 93%
    Mehr zeigen